星链-34136 (STARLINK-34136)

导读

STARLINK-34136是美国SpaceX公司星链(Starlink)星座的成员卫星,于2025年5月23日由美国发射入轨。星链计划旨在构建全球覆盖的低轨卫星互联网系统,向全球偏远地区提供高速低延迟宽带服务,同时具备潜在军事应用价值。STARLINK-34136的入轨进一步扩充了星链星座规模,推动全球卫星互联网覆盖能力提升,目前星链已在全球六十多个国家和地区提供服务,用户规模突破数百万。

Basic Information
目录编号:
64112
目录名称:
STARLINK-34136
国际标识:
2025-110S
轨道中心:
EARTH
卫星名称:
星链-34136
卫星全名:
星链-34136 (STARLINK-34136)
卫星状态:
在轨 (已飞行387 天)
发射日期:
2025-05-23 UTC
国别 :
美国 (US)
星等 :
--
Orbit Information
数据来源 国际轨道数据 AOE轨道数据
星历时间 2026-06-13T23:50:25+0800
11小时前
查看轨道信息
2026-06-09T16:00:00+0800
4天前
查看轨道信息
半长轴 6848.873km 6848.727km
偏心率 0.0001279 0.0001227
轨道倾角 53.160° 53.159°
近地点辐角 88.499° 87.606°
升交点赤经 300.447° 320.590°
平近点角 271.616° 161.426°
近地点 469.86km 469.749km
远地点 471.612km 471.431km
周期 94.013分钟 94.010分钟
每日圈数 15.317014 15.317504
Detailed Information
固有亮度:
5
最大亮度:
2.5
卫星平台:
Starlink V1.0
覆盖范围:
全球
运营商:
太空探索技术公司
运营商所在国:
美国
制造商(研发单位):
太空探索技术公司
制造商所在国:
美国
使用方式:
暂无
Satellite Introduction
Starlink 计划是 SpaceX 推出的全球卫星互联网项目,通过发射低轨道卫星,为全球尤其是偏远地区提供高速、低延迟的互联网服务。自 2019 年起,Starlink 已部署数千颗卫星,旨在缩小全球数字鸿沟,推动互联网普及。该项目还为军事、航空等行业提供通信支持,带来广泛经济效益。
2D Orbit Map
3D Orbit Map
Orbit Altitude Analysis Chart
Orbit Inclination Analysis Chart
Orbit Comprehensive Analysis Chart
View Comprehensive Chart